Theta_e
301 295 293 293 296 298 298 297 298 299 296 293 293 293 292 292 293 296 296 298 297 293 293 294 295 295 296 297 299 300 301 300 300 300 301 302 302 303 303 304 305 304 303 307 309 309 310 311 310 309 308 307 305 305 305 306 307 308 308 308 307 308 308 308 309 310 311 311 311 311 310 310 310 310 310 309 309 309 308 308 306 305 303 303 302 301
297 294 294 297 298 299 299 298 297 296 295 294 293 293 292 293 291 295 296 298 296 292 292 294 293 294 295 297 298 300 299 298 300 300 301 301 302 303 304 304 304 303 306 308 308 308 308 308 310 309 308 306 305 305 303 305 306 307 307 307 307 307 306 306 307 309 310 311 311 310 310 309 310 308 307 307 308 308 307 306 306 305 303 302 302 300
293 291 296 299 300 296 294 294 294 294 294 294 292 293 292 292 295 296 296 297 295 291 292 294 292 293 295 296 298 299 299 300 301 301 301 301 302 303 304 303 303 303 304 305 306 308 307 309 311 309 309 308 305 305 305 305 306 306 307 307 307 307 306 306 306 307 308 310 311 310 309 309 308 309 308 308 307 306 305 304 304 304 303 302 301 301
291 294 297 300 299 295 294 293 293 293 293 292 293 291 289 294 291 290 294 292 292 292 291 292 290 292 296 298 298 300 300 300 302 302 303 303 302 302 301 302 302 302 304 305 305 305 306 308 308 308 307 305 306 306 305 304 304 305 305 306 307 306 306 306 305 305 308 309 309 309 308 306 307 306 306 305 304 303 303 302 303 303 302 302 301 301
295 295 297 298 297 295 294 294 292 292 292 295 294 292 291 292 293 292 292 294 294 295 293 292 293 295 298 296 297 298 299 299 300 301 302 303 304 303 304 303 303 303 304 305 305 306 305 305 306 306 305 306 306 306 306 305 304 303 304 306 306 306 306 306 305 305 306 306 306 306 305 304 303 303 302 302 302 303 302 302 301 301 301 301 301 300
296 296 296 295 294 294 293 292 293 294 291 293 296 294 293 294 293 293 294 292 290 290 292 291 287 290 295 296 297 300 300 299 300 299 301 303 303 302 301 301 302 305 305 304 303 304 306 306 306 307 306 306 306 304 303 303 303 303 304 305 305 306 305 305 305 305 304 304 303 303 301 300 300 300 300 299 300 300 300 300 301 301 300 300 300 300
295 296 296 295 295 294 293 293 295 295 291 290 292 296 295 294 293 293 292 291 287 286 291 293 286 284 294 294 296 298 298 299 302 302 301 302 302 301 301 301 302 303 304 305 305 305 304 304 304 304 304 304 302 302 304 304 303 303 303 304 304 305 305 305 304 304 303 303 303 303 302 302 301 300 301 302 302 301 301 301 300 300 300 300 300 300
293 293 292 293 293 293 292 290 295 294 292 290 294 292 294 293 292 292 291 290 289 292 292 290 291 286 287 293 297 298 297 298 300 301 303 302 300 300 300 300 302 303 304 305 304 303 302 302 302 301 303 302 301 301 302 302 302 302 302 303 303 304 304 304 304 303 303 303 303 302 302 302 302 302 302 302 301 301 301 299 299 299 299 299 299 299
292 293 292 292 292 292 291 295 297 295 292 292 291 292 292 292 292 291 291 290 289 287 286 289 291 286 288 293 293 294 294 297 298 300 301 301 300 299 300 300 302 302 302 301 300 300 300 300 301 301 301 301 301 301 301 301 301 302 302 303 302 302 303 303 303 303 303 302 303 303 302 301 302 302 303 303 301 300 300 299 299 298 298 298 298 299
292 292 295 296 294 292 295 292 295 296 292 292 291 292 291 292 291 291 290 290 289 286 284 287 291 287 288 297 294 293 293 295 298 299 299 298 298 299 299 300 301 301 301 301 300 300 300 299 299 300 300 299 299 300 300 300 300 301 301 301 301 301 302 302 302 302 302 303 302 302 302 301 301 302 301 302 301 300 300 298 298 298 297 297 297 297
292 293 293 294 293 296 294 290 290 295 293 292 295 294 293 292 291 290 290 289 287 283 286 290 291 291 286 294 296 294 296 296 297 299 299 299 299 298 298 298 297 297 297 298 298 298 298 298 298 298 297 297 298 298 298 298 299 299 300 300 300 299 300 301 301 301 301 302 302 301 302 302 301 302 301 300 300 300 299 298 298 298 297 297 296 297
292 292 292 295 296 292 295 292 290 290 290 293 291 290 290 289 288 288 287 288 283 283 289 291 291 292 284 290 294 296 296 295 296 296 298 298 297 296 296 296 296 296 296 295 295 295 295 295 296 296 295 296 296 296 296 297 297 298 298 299 298 298 298 299 300 300 301 301 302 301 302 301 301 301 301 300 299 300 299 298 298 298 297 296 296 296
290 291 295 295 294 294 294 292 291 291 290 291 289 288 284 284 285 283 285 281 283 284 286 287 289 286 286 293 295 298 299 299 296 297 297 295 294 294 294 294 294 294 294 293 293 293 293 293 293 293 294 295 295 295 295 296 296 296 297 297 297 296 297 297 298 298 299 300 300 301 301 301 301 300 300 300 300 300 299 298 298 297 296 296 295 295
294 291 291 294 294 295 296 289 289 288 289 288 286 286 284 281 281 279 283 283 283 286 285 286 289 285 291 293 297 297 300 298 297 297 295 294 293 292 293 293 292 292 292 292 291 291 291 291 292 292 293 293 294 294 295 295 295 296 296 296 295 295 296 297 297 297 297 298 299 300 300 300 300 300 300 300 299 300 299 299 298 298 297 297 296 296
285 288 293 292 293 296 294 294 294 293 289 289 293 289 287 287 283 279 283 281 283 287 286 287 285 285 286 293 296 297 296 297 297 296 295 294 294 292 292 292 291 291 290 291 290 290 290 290 291 291 292 292 293 293 294 294 295 295 295 295 295 295 295 295 296 296 296 297 297 298 299 299 299 299 299 299 300 299 299 299 298 298 298 297 297 297
288 289 297 296 294 294 294 296 294 291 288 289 290 290 287 286 291 283 286 285 286 286 286 283 285 291 292 296 297 298 297 297 293 293 293 292 292 291 290 289 289 288 288 289 289 290 290 290 290 291 291 291 292 292 292 293 293 294 294 295 295 295 295 295 295 295 295 296 296 297 297 297 298 298 298 298 299 299 299 299 298 298 298 298 297 298
288 287 294 291 290 293 294 293 293 295 286 287 286 284 289 294 290 286 285 286 285 284 282 290 289 292 297 297 298 299 297 294 292 291 290 290 290 289 287 287 287 287 287 288 288 289 289 289 290 290 290 290 290 291 291 291 293 293 293 293 293 294 295 295 295 295 295 295 295 296 296 296 297 297 297 297 298 298 299 299 298 298 298 298 298 298
287 289 297 294 293 297 292 292 294 292 295 287 283 289 291 294 294 287 281 284 282 279 282 289 285 288 290 286 294 296 294 291 290 289 289 288 288 286 286 286 286 286 287 287 288 288 288 288 289 289 290 289 289 291 291 291 292 292 292 292 292 293 293 294 294 295 295 294 294 295 295 295 296 296 296 296 297 297 297 298 297 297 297 297 297 297
294 285 293 297 297 295 289 293 291 294 294 290 289 292 288 283 283 287 284 276 277 277 280 285 287 287 290 290 294 294 293 290 288 287 286 285 285 285 285 286 286 287 287 286 286 286 287 287 287 288 288 289 290 290 291 291 291 291 292 292 292 292 293 293 294 294 295 295 294 295 294 294 295 295 295 296 296 296 296 296 296 296 296 297 297 296
293 286 289 290 294 293 292 291 285 290 292 290 291 290 292 288 286 285 284 284 285 278 280 279 285 283 293 293 294 290 290 289 288 287 286 285 285 286 287 287 286 286 286 286 286 286 286 286 287 287 287 288 289 289 290 291 291 290 291 291 291 292 292 292 293 293 293 294 294 294 294 294 294 294 294 294 294 294 295 295 295 296 295 296 296 295
290 293 283 292 289 292 286 289 287 290 286 286 287 286 289 287 289 288 285 283 282 280 280 279 278 284 292 293 291 287 288 288 287 286 286 286 286 286 286 286 287 286 286 286 286 286 286 286 287 287 288 288 289 290 290 290 290 290 290 290 290 291 291 291 292 292 292 293 293 293 293 293 293 293 293 293 293 293 294 294 294 295 295 295 294 294
289 289 285 289 288 287 290 296 293 294 293 291 289 286 288 285 283 280 278 288 284 282 279 279 277 286 291 289 288 287 287 287 287 287 286 285 286 286 286 286 286 286 286 286 287 287 287 287 287 288 289 289 289 289 288 289 290 289 289 289 290 290 290 290 291 291 292 292 292 292 292 292 292 293 292 292 292 292 292 292 293 294 294 294 294 294
293 287 285 283 288 290 294 295 293 293 292 292 292 289 292 289 288 284 278 282 285 284 286 284 281 283 287 288 288 287 287 286 287 287 285 285 285 286 286 287 287 287 286 287 287 288 287 288 288 288 288 288 288 288 288 289 289 289 289 289 289 288 289 290 290 291 291 291 291 290 291 291 291 291 291 291 291 291 291 291 291 292 292 292 293 293
291 286 284 285 291 293 295 296 293 290 291 290 290 291 290 287 289 286 286 286 283 285 283 283 279 284 289 287 287 287 287 286 286 287 286 285 285 285 285 286 286 286 287 288 288 288 288 288 288 288 288 288 288 288 288 289 289 289 289 289 289 288 289 289 290 290 290 290 290 290 289 289 290 289 290 290 291 290 291 291 291 291 291 291 291 291
287 287 286 282 283 285 289 292 290 291 291 287 287 289 288 290 289 287 285 285 280 282 283 281 276 284 288 285 285 285 285 285 285 286 286 286 286 286 286 286 286 286 286 287 287 288 288 288 288 288 288 288 287 288 288 288 288 289 289 289 289 288 289 289 290 289 289 289 288 288 288 288 289 288 288 289 289 289 290 290 290 290 290 291 290 290
288 287 286 279 276 274 274 277 280 283 285 287 287 287 289 287 286 285 282 285 280 283 284 281 280 287 286 285 285 285 284 283 283 283 284 285 284 284 285 285 285 286 286 286 286 287 287 288 288 288 287 288 287 287 287 288 288 288 289 289 289 288 288 288 289 288 288 289 288 288 287 288 288 288 288 288 288 289 289 290 290 290 290 290 290 290
287 288 288 285 282 280 282 285 290 289 287 283 285 287 286 288 287 286 284 281 278 282 281 283 284 284 287 289 290 285 284 283 281 282 281 283 283 284 284 284 285 285 285 285 286 286 287 287 287 288 288 287 287 287 287 287 288 288 288 288 289 289 288 288 288 288 288 288 288 288 287 287 287 287 287 287 288 288 289 289 289 289 289 289 289 289
286 284 286 286 286 286 287 287 290 287 285 285 284 284 287 287 286 284 281 279 285 280 275 284 285 283 284 288 289 288 283 281 281 281 282 282 283 284 284 284 285 284 285 285 285 285 285 286 287 287 287 287 287 287 287 287 287 287 287 288 288 288 288 288 287 287 287 287 287 287 287 287 287 287 287 288 288 288 288 288 288 289 289 289 289 289
285 282 286 287 285 288 289 288 287 285 284 284 284 284 283 285 285 282 282 285 284 279 277 283 284 281 283 285 287 285 281 280 281 281 282 283 283 284 284 283 284 283 284 284 284 285 285 285 286 287 287 287 287 287 286 287 287 287 287 288 288 288 288 288 287 287 286 286 286 286 287 287 287 287 287 287 287 287 287 287 287 288 288 288 289 289
286 281 285 284 282 283 285 286 286 284 283 284 283 283 284 284 284 284 283 285 284 282 283 283 283 282 284 285 285 281 282 282 282 283 283 283 282 283 284 284 284 284 284 284 284 285 286 286 286 286 287 287 287 287 286 286 286 287 287 287 288 288 288 288 287 287 286 286 286 287 287 287 287 287 287 286 286 286 286 286 287 287 287 287 288 288
286 279 283 279 280 279 283 284 284 283 282 279 281 282 283 282 282 283 282 282 283 282 282 282 281 280 285 283 284 283 281 283 283 282 282 282 283 282 283 283 284 285 285 284 285 285 286 286 287 287 287 287 287 287 287 287 287 287 287 287 287 287 288 288 287 287 286 286 286 287 287 287 287 287 286 286 286 285 285 285 285 285 286 286 286 287
284 278 283 279 276 276 281 280 281 281 279 278 277 279 280 280 278 280 280 283 281 279 281 281 279 280 283 281 281 283 281 281 280 281 282 282 283 282 282 282 283 284 285 284 284 285 286 286 286 286 287 287 288 288 287 287 287 287 286 287 287 287 288 287 287 287 286 286 286 286 286 286 286 286 286 286 285 285 285 285 285 285 285 285 286 286
282 279 277 277 274 273 279 280 278 277 276 273 274 277 280 281 281 282 283 283 283 283 279 276 277 282 281 283 279 280 281 279 281 281 281 282 282 283 283 283 284 284 285 285 284 285 285 285 286 286 287 287 288 288 288 288 287 286 287 287 287 288 287 287 287 286 286 286 286 286 286 285 285 285 285 285 285 285 285 285 285 284 285 285 285 285
281 279 277 280 273 273 277 277 277 272 266 268 281 283 282 279 280 278 278 280 282 283 281 282 280 279 281 281 279 278 278 279 280 282 283 283 282 282 283 283 284 285 285 286 286 285 285 286 287 287 287 287 288 288 288 288 287 287 287 287 287 287 287 286 286 286 286 285 285 285 285 285 285 285 285 285 285 285 284 284 284 284 285 285 285 285
278 278 277 279 274 272 275 272 271 265 267 278 283 283 282 282 282 281 281 282 283 279 280 279 278 279 280 281 280 280 280 281 282 282 283 284 284 284 283 284 284 285 285 286 286 286 286 286 286 287 287 287 288 288 288 287 287 287 287 286 286 286 286 286 286 285 285 285 285 285 285 285 285 285 285 285 285 284 284 284 284 284 284 284 284 284
277 277 277 275 276 274 271 271 264 265 276 274 279 280 283 282 281 280 278 281 282 282 282 280 279 279 280 280 281 281 281 282 283 284 284 285 286 285 284 283 284 284 284 286 286 286 286 286 286 286 286 288 288 288 288 287 287 285 285 285 285 285 285 285 285 285 285 284 284 284 284 284 284 284 284 284 284 283 283 283 283 283 284 284 284 284
280 278 277 272 276 269 271 270 270 275 274 276 277 279 279 278 279 277 273 277 281 282 281 280 281 280 279 279 280 281 282 283 281 282 285 285 286 286 285 284 284 284 285 286 287 286 287 287 286 286 286 286 286 285 285 285 284 283 283 283 283 283 283 283 283 283 283 283 284 284 284 284 283 284 283 283 283 282 282 282 282 283 284 283 283 283
281 276 277 273 270 275 268 268 269 268 265 271 277 280 283 281 281 279 278 274 280 279 280 278 277 278 278 279 280 280 282 278 276 278 283 284 284 284 284 285 285 285 285 285 286 286 285 285 285 284 283 282 282 283 283 283 282 281 281 281 281 281 281 281 281 282 282 282 283 283 283 283 283 282 282 282 281 281 282 282 283 283 283 283 282 282
280 281 278 275 272 273 270 267 266 265 268 277 277 280 282 281 283 281 276 270 279 277 279 278 277 278 278 278 278 280 277 273 274 278 283 284 283 284 283 283 284 284 284 284 283 283 283 282 282 281 281 281 280 281 281 281 280 279 279 279 279 279 279 279 280 281 281 281 282 282 282 282 282 281 281 281 281 281 280 281 281 282 283 283 282 282
275 276 276 272 271 271 270 268 266 271 269 275 277 279 280 281 282 278 267 268 275 275 277 277 276 277 278 279 279 278 276 273 275 279 283 283 283 283 283 282 282 283 282 283 282 282 281 280 280 279 279 279 279 280 279 279 278 278 277 277 278 277 277 278 278 279 280 280 280 280 280 281 280 280 280 280 280 280 281 281 280 281 281 282 282 281
272 271 273 269 270 271 271 269 271 271 277 277 277 281 280 280 278 269 264 273 276 276 277 277 278 279 279 278 279 276 279 280 281 282 284 283 282 282 282 283 281 280 280 279 279 280 279 279 278 278 277 278 278 278 277 277 275 275 275 275 274 274 275 276 277 277 277 277 277 278 278 279 279 279 279 279 279 279 279 279 279 280 280 280 280 280
267 268 268 270 268 269 270 268 268 272 278 280 278 278 280 277 268 268 276 278 278 278 280 279 278 279 279 279 279 280 281 282 282 282 281 281 280 280 280 279 278 278 279 279 279 278 277 277 276 276 276 276 276 275 274 274 272 272 272 272 271 272 274 274 274 274 274 274 275 275 276 276 277 278 277 278 278 277 277 278 278 278 278 279 279 278
270 267 267 268 268 269 268 267 266 262 274 278 280 277 280 272 274 279 279 280 281 280 280 279 280 280 280 279 280 280 280 280 280 280 279 279 278 278 277 277 276 276 276 276 276 277 276 274 273 273 273 273 273 273 272 271 269 269 269 268 269 271 271 272 272 272 272 272 272 273 273 274 274 274 275 275 275 275 274 275 276 276 277 277 277 276
277 268 269 270 273 267 267 264 265 273 277 280 279 274 278 280 282 281 281 278 282 281 280 280 280 280 279 279 279 278 279 278 279 279 277 277 277 276 276 276 276 276 276 276 275 274 273 272 271 270 270 270 270 270 269 268 266 266 266 266 268 268 269 269 268 267 267 267 267 268 269 270 271 272 272 273 273 273 273 273 274 274 275 275 274 274
277 272 274 270 275 271 269 272 276 278 279 280 279 281 282 283 283 282 281 280 279 280 281 279 279 278 278 277 277 277 277 278 277 276 275 275 275 275 275 275 275 274 274 273 273 272 270 269 268 268 267 268 267 266 266 265 264 263 262 264 265 264 264 264 264 263 263 264 264 265 266 267 268 268 269 270 271 270 271 271 272 272 272 273 272 273
279 279 279 275 273 278 279 279 281 280 280 280 282 282 281 281 282 282 281 279 281 280 280 279 279 277 276 275 274 275 275 275 274 274 274 274 274 274 274 274 273 273 272 271 270 269 268 267 265 264 264 264 264 263 264 263 263 260 261 263 263 263 263 262 261 261 260 261 261 261 262 263 263 265 266 267 268 269 269 269 270 270 270 271 271 271
277 278 274 272 276 273 268 278 278 278 280 280 280 282 283 282 282 282 280 280 279 277 276 276 276 275 274 273 273 273 273 273 272 273 273 273 272 272 272 271 271 270 269 268 268 266 265 263 262 261 261 260 262 262 262 262 261 261 261 261 262 262 261 260 260 259 259 259 260 260 260 260 261 262 262 263 264 265 267 268 268 268 268 269 269 269
272 280 274 274 274 272 271 276 278 280 280 281 280 279 280 281 281 278 278 277 276 275 274 274 273 273 273 271 272 271 272 272 271 271 271 271 270 270 270 269 268 268 267 267 265 264 262 261 260 260 259 259 261 261 261 261 261 261 261 261 261 261 260 259 259 259 258 259 259 259 259 259 261 261 261 261 262 263 263 265 266 266 266 267 267 267
276 277 270 273 272 274 277 278 278 279 279 279 280 281 281 282 281 276 274 274 273 272 272 271 272 272 272 271 271 271 269 270 270 269 269 269 268 268 267 267 266 266 265 263 262 262 260 260 259 259 259 259 260 261 260 260 260 261 261 261 260 260 259 258 259 258 258 258 259 259 259 259 260 260 260 260 261 262 263 263 263 264 265 266 267 267
275 272 275 273 270 270 271 274 277 272 272 277 279 280 280 275 277 275 273 272 271 271 270 269 270 270 270 270 270 269 267 268 268 268 266 267 266 266 266 265 264 262 262 262 261 260 259 259 259 259 259 259 260 260 260 260 260 260 260 260 260 259 258 258 258 258 258 258 258 259 259 259 259 259 260 260 260 260 261 264 267 266 264 264 268 270
274 275 275 272 271 271 276 278 279 279 278 279 280 276 274 274 274 273 273 272 271 270 269 268 268 268 268 268 268 267 266 266 266 266 265 265 265 264 264 262 261 260 260 260 259 259 259 259 259 259 258 259 260 260 259 259 259 259 259 260 259 259 258 258 257 257 258 258 258 258 259 259 259 259 259 259 259 259 259 260 262 267 268 269 268 269
Wind_Speed
3 9 9 10 13 14 13 17 19 15 4 4 5 8 13 13 14 14 16 15 2 8 13 18 19 19 18 15 15 17 19 20 22 22 18 17 15 15 17 10 4 3 3 2 6 7 6 7 5 4 4 4 4 4 5 6 8 9 9 7 9 8 9 9 9 9 10 11 10 10 12 12 10 11 11 10 11 10 10 10 11 10 10 10 11 11
2 10 11 15 17 13 7 4 6 10 10 12 12 12 14 10 16 13 15 9 2 6 9 8 18 19 18 18 18 19 21 24 21 17 18 20 19 16 12 3 4 4 1 5 8 5 5 6 6 5 3 3 5 3 3 5 6 7 8 8 8 7 9 10 10 9 9 10 10 9 10 9 9 9 10 10 10 10 8 9 10 9 10 10 11 11
7 11 12 15 10 6 3 2 1 7 11 11 10 11 10 11 14 16 15 12 3 1 11 9 16 15 19 22 23 19 19 17 16 16 18 19 18 13 7 6 5 3 5 8 6 4 5 6 6 5 5 4 4 5 3 3 4 5 6 7 8 7 9 9 10 9 9 8 8 8 6 7 7 7 7 8 7 7 8 7 8 9 9 11 10 11
8 8 14 14 4 3 3 2 3 6 7 8 9 8 11 7 6 10 4 2 2 1 13 15 20 16 19 21 18 14 13 14 14 16 17 19 16 7 9 7 6 7 4 4 4 6 6 6 7 9 9 8 6 3 3 2 3 3 5 6 7 7 8 8 9 9 8 7 6 6 3 3 6 5 6 7 6 6 7 8 8 9 9 10 10 11
11 5 1 8 6 8 12 8 5 8 13 9 12 10 12 14 13 11 10 6 10 13 4 12 13 11 4 1 5 1 2 9 12 13 17 8 7 4 4 2 2 3 2 2 5 7 8 9 11 9 7 6 5 5 7 6 4 3 4 4 5 6 7 7 7 9 8 6 6 5 3 1 3 3 5 6 9 9 8 9 9 11 10 11 11 11
12 3 3 4 6 10 9 8 10 11 14 9 7 10 17 16 16 15 14 9 7 8 3 9 12 3 4 2 7 6 4 6 10 13 14 7 10 8 6 4 2 2 3 5 7 7 6 8 9 10 10 9 8 10 8 6 6 6 5 3 3 4 4 6 7 8 8 7 8 7 8 9 9 10 10 11 11 11 13 14 11 13 14 13 13 12
5 2 5 8 6 4 6 8 11 11 12 8 6 10 14 14 13 11 12 6 7 4 3 6 5 12 4 11 9 10 9 11 16 12 4 6 7 6 3 2 1 3 5 6 6 7 9 12 12 13 13 13 13 12 8 7 8 7 5 4 3 3 3 4 5 8 7 7 8 10 10 9 9 10 8 8 8 9 8 7 10 10 11 13 14 14
5 3 1 1 4 5 5 7 11 12 7 10 3 0 3 6 7 7 5 6 10 4 6 7 8 10 13 3 2 4 7 14 16 13 2 8 8 8 5 4 4 5 7 8 10 13 14 14 15 14 13 13 14 13 13 11 10 10 9 7 4 2 2 2 5 7 8 8 8 9 10 9 9 9 8 6 7 6 6 8 9 8 9 11 11 11
5 3 5 5 5 5 10 13 5 11 8 1 3 1 1 3 4 2 4 6 4 6 6 4 3 5 8 0 1 4 6 13 13 8 8 11 8 6 8 6 5 9 11 14 14 14 13 14 14 14 15 15 16 16 14 13 12 10 9 8 6 5 3 2 4 5 8 8 8 8 8 9 9 8 8 5 5 6 6 8 8 9 9 10 11 12
1 1 3 6 5 8 6 4 4 9 9 2 4 6 5 3 3 2 3 4 4 3 9 6 8 6 15 1 3 1 5 7 6 7 10 11 10 8 10 9 11 13 14 14 14 13 13 14 14 13 13 18 17 15 15 15 13 13 11 11 10 9 5 4 2 4 6 8 7 7 8 10 9 7 7 7 6 6 6 8 9 8 8 8 10 12
1 1 0 3 9 5 4 3 1 3 2 4 4 1 1 1 1 1 0 2 3 8 8 11 14 9 11 1 0 3 2 3 5 4 7 13 14 15 13 13 13 14 14 12 13 14 13 12 13 13 18 18 19 16 17 16 14 13 13 12 12 11 8 7 4 4 5 6 7 8 8 9 9 8 7 7 8 7 7 8 8 8 8 8 9 9
3 3 2 5 1 4 3 5 3 1 2 0 0 1 5 4 2 3 1 2 4 10 3 8 11 12 10 2 4 0 2 6 3 4 7 15 12 12 13 13 14 13 12 12 12 13 13 14 16 17 18 19 18 18 18 16 15 15 14 14 14 14 13 9 7 6 5 5 6 7 7 8 8 8 7 9 10 9 9 8 8 7 7 8 8 9
4 9 2 1 1 5 4 4 2 2 1 2 2 2 3 4 3 3 4 2 7 8 1 3 3 4 15 11 7 11 12 4 1 3 9 11 10 12 13 13 12 12 13 12 12 11 12 13 14 16 17 17 17 16 16 16 15 14 15 16 15 15 14 12 9 8 6 6 6 6 7 8 7 8 9 10 10 9 8 8 8 8 8 7 8 9
5 5 3 5 1 5 6 7 3 2 5 6 5 3 1 4 3 5 5 3 5 1 2 2 1 10 8 4 15 20 13 5 6 11 12 13 14 13 12 11 11 12 12 11 11 12 12 13 13 15 15 15 14 17 16 15 15 14 13 15 16 15 13 11 10 9 8 7 7 7 7 7 6 8 8 9 9 9 8 8 9 9 9 9 10 10
10 7 2 4 1 7 11 12 5 1 7 9 1 7 5 5 2 7 3 9 8 6 2 3 1 4 1 2 5 4 5 5 10 12 13 14 13 12 11 11 12 13 13 11 11 12 12 13 14 13 13 13 13 15 15 14 15 13 12 12 14 16 17 17 15 12 11 9 9 8 7 7 6 7 8 8 9 9 9 8 8 8 8 9 9 9
8 11 2 2 1 7 9 3 5 5 2 2 1 2 1 5 3 10 7 6 8 7 6 4 6 1 5 4 3 3 1 11 14 15 13 14 11 10 11 13 12 12 11 10 10 12 14 13 13 12 12 12 12 13 13 14 11 9 8 11 15 15 14 13 13 12 11 10 8 9 9 9 8 7 8 9 9 9 9 9 8 9 9 9 9 8
2 8 6 2 1 8 8 5 4 4 6 2 3 5 6 2 4 5 2 1 2 3 14 5 8 11 7 11 8 3 10 12 14 14 14 13 12 13 13 11 11 9 8 9 11 11 12 11 11 10 11 10 11 11 11 10 8 10 14 16 18 16 14 14 14 13 12 11 10 10 9 9 9 9 9 9 12 12 10 9 8 8 9 9 8 8
7 11 2 6 5 8 2 3 2 3 3 7 3 5 2 1 2 2 5 1 5 10 7 4 14 13 6 8 5 10 9 10 10 10 10 11 9 11 8 8 7 7 8 8 9 8 8 8 9 9 8 9 9 9 8 9 9 11 13 15 14 14 15 14 13 12 12 13 12 11 11 10 9 9 9 9 11 11 10 9 8 8 8 9 8 7
5 9 9 8 13 2 1 2 4 4 2 5 4 1 3 3 4 5 1 5 5 8 6 7 13 13 10 10 7 1 7 6 7 6 9 10 9 8 8 8 8 7 7 7 7 7 6 6 7 7 8 8 8 8 8 9 11 12 12 12 11 12 12 12 10 10 9 10 9 8 10 11 10 9 8 9 10 10 10 10 9 9 9 8 8 8
1 8 6 3 4 3 3 5 6 7 3 2 1 1 1 1 5 5 5 1 2 9 6 4 6 8 4 4 2 6 7 6 5 8 8 8 7 6 6 6 6 6 6 5 5 5 5 5 6 7 7 8 8 9 9 10 10 13 11 11 10 10 10 11 12 11 10 9 8 9 10 10 9 10 9 9 9 10 10 10 10 9 9 10 8 7
4 3 12 3 3 1 4 6 5 8 5 3 3 5 1 2 1 2 3 2 5 5 7 5 8 7 4 4 4 9 5 6 7 7 6 6 6 6 6 5 5 4 4 3 2 2 3 4 4 5 5 5 6 7 9 10 11 9 9 10 10 10 10 10 9 9 8 9 9 10 9 9 9 10 7 7 7 8 9 10 10 9 10 8 8 8
3 4 11 6 5 7 8 2 4 7 6 6 9 9 10 4 3 5 8 4 6 7 6 7 10 3 3 4 7 8 6 5 6 7 6 5 5 5 4 4 3 2 3 3 4 5 6 6 5 6 6 6 7 8 9 8 7 9 10 9 9 9 9 9 10 9 9 7 6 7 7 6 3 3 5 6 7 8 9 9 9 10 9 10 10 9
2 1 1 5 9 11 5 4 1 3 4 3 3 4 2 4 5 6 10 6 5 7 8 9 12 4 3 2 5 6 5 6 5 5 5 4 4 4 5 6 6 6 6 5 5 5 5 6 6 6 6 7 7 7 7 6 7 7 7 8 8 9 9 8 8 7 6 6 6 7 6 5 6 8 9 9 8 9 9 9 9 9 10 10 10 9
3 1 3 8 9 9 13 2 2 2 0 8 7 6 4 8 6 7 6 4 4 1 7 6 9 2 4 4 5 5 6 5 4 4 5 4 3 2 3 3 5 6 7 7 7 7 7 6 6 7 8 8 8 8 7 6 6 6 6 6 6 8 9 8 7 7 7 7 8 8 8 9 10 12 12 13 10 11 10 9 8 8 9 10 9 10
3 2 1 4 3 2 5 2 1 2 3 1 1 2 1 4 6 5 2 2 6 6 8 8 10 2 3 7 4 6 7 6 5 3 3 3 3 3 4 3 3 4 4 5 5 6 7 7 8 7 7 7 8 8 8 9 8 9 8 8 8 8 7 7 6 7 7 7 8 9 10 11 11 12 13 12 11 12 11 10 8 7 8 8 9 9
3 4 4 9 10 9 9 8 6 2 2 2 2 2 3 4 4 6 8 7 10 6 15 11 9 1 6 3 8 7 6 5 4 4 3 3 1 1 1 3 3 4 4 5 6 5 6 5 5 6 7 6 7 7 7 8 8 8 7 7 7 7 8 9 8 9 9 9 10 11 13 12 12 12 11 11 10 11 11 11 10 10 8 7 9 9
1 2 5 9 12 13 13 11 3 5 1 4 3 3 5 4 3 4 6 7 8 6 7 5 7 9 8 7 10 3 2 4 4 4 3 3 3 3 3 3 3 3 5 4 5 5 5 6 7 7 8 8 8 8 8 8 9 9 10 11 10 8 8 8 8 10 9 10 10 10 10 10 10 9 9 9 9 8 9 9 10 10 10 9 8 9
1 4 6 10 12 13 15 14 9 2 9 9 8 10 8 8 6 9 9 11 6 12 14 7 13 10 6 10 12 9 5 4 4 2 3 4 5 5 5 5 6 5 6 6 6 7 6 7 6 6 6 7 7 7 7 7 7 8 8 9 9 9 8 6 8 9 8 8 8 8 8 8 8 8 8 8 8 8 8 8 9 9 10 10 10 9
2 11 7 12 12 14 10 8 5 5 6 7 8 9 12 13 13 14 13 12 13 12 15 11 14 15 14 12 17 4 5 3 3 1 3 3 4 6 6 7 7 7 7 7 7 6 7 7 7 8 7 7 7 7 7 6 6 7 7 8 8 7 8 8 8 9 9 8 8 7 7 7 6 6 7 8 8 8 9 9 9 9 9 9 10 9
1 6 5 3 6 5 8 9 8 8 7 9 10 11 13 15 17 16 16 16 18 19 17 17 19 22 20 14 2 4 1 2 2 2 3 4 4 4 6 7 8 8 7 7 7 7 7 7 7 7 8 9 9 10 9 8 8 8 8 8 9 9 8 8 9 9 9 9 9 9 9 8 7 7 7 8 8 8 9 9 9 9 8 9 9 9
2 5 6 2 4 6 7 8 9 9 9 12 11 13 14 17 18 15 17 17 17 19 20 22 22 22 6 7 5 3 0 2 2 6 4 5 5 5 7 8 8 8 7 7 7 8 8 8 9 8 9 9 9 9 9 8 9 9 9 9 10 10 10 9 10 10 10 10 10 10 10 10 9 8 8 8 8 6 6 8 7 7 8 7 7 9
3 4 3 1 6 7 6 8 9 5 6 9 11 17 21 19 16 15 16 12 12 15 17 17 15 13 2 5 4 2 1 2 5 7 7 5 5 5 7 8 9 9 9 8 8 7 7 8 8 9 9 10 10 10 9 8 8 8 9 10 10 11 11 11 11 12 12 12 12 12 12 11 11 9 10 9 8 8 7 7 6 6 7 7 8 7
2 1 1 5 9 8 11 7 3 3 8 11 13 19 19 18 19 18 17 19 21 18 14 13 11 1 5 4 3 2 1 4 7 7 7 7 6 7 7 9 9 9 10 10 9 8 8 8 8 9 9 9 9 9 9 9 8 8 9 9 9 9 9 10 11 12 12 13 13 13 12 10 10 9 9 8 8 8 8 8 8 8 7 7 7 6
3 4 6 4 7 4 9 9 2 3 12 15 1 1 7 14 11 14 14 14 13 9 4 2 2 2 3 3 2 4 6 6 9 9 7 7 9 10 11 12 12 12 11 10 10 9 9 8 7 8 9 10 10 10 10 9 9 9 9 9 9 9 9 10 10 10 11 11 10 11 11 9 10 9 9 8 7 8 8 8 9 9 9 9 8 7
8 8 9 7 10 13 7 1 7 16 15 5 3 2 1 3 2 10 12 13 7 4 4 3 4 3 5 1 2 5 6 8 9 9 9 8 8 9 11 13 13 13 13 12 11 10 9 9 9 9 9 9 9 8 8 8 8 8 8 9 10 10 10 9 10 9 11 11 11 11 9 10 9 10 9 9 8 9 10 9 10 10 9 9 8 8
9 10 8 6 8 2 1 9 10 9 2 4 6 1 1 1 8 9 12 13 7 7 7 6 6 5 4 3 5 5 7 9 7 7 8 8 8 8 10 12 14 15 15 13 14 12 10 10 10 11 11 10 10 9 7 8 7 8 10 10 11 11 11 10 9 11 11 10 9 9 10 10 10 10 9 10 10 11 10 10 9 11 10 9 9 9
13 7 3 8 4 8 7 11 17 9 14 12 12 5 6 5 5 5 6 3 7 5 7 5 6 4 3 5 6 8 6 3 7 9 8 8 8 8 9 11 13 14 15 16 15 14 11 12 13 14 13 14 13 13 12 11 11 11 12 12 11 11 12 11 12 13 13 13 13 11 9 10 10 10 10 9 11 13 13 11 13 11 9 10 10 10
13 13 7 7 4 8 6 10 8 7 8 2 2 1 1 2 2 3 3 6 2 2 3 4 2 2 6 7 8 9 7 8 9 9 6 4 3 5 6 8 10 12 13 15 14 12 13 13 13 13 12 13 13 12 11 12 13 13 13 13 13 11 12 12 14 14 14 15 14 14 12 10 10 12 14 13 13 14 12 11 10 11 10 10 11 11
8 12 10 9 6 6 6 8 8 8 4 6 2 6 1 4 1 1 1 6 3 5 2 2 5 4 4 6 7 7 4 7 9 10 9 7 7 6 7 9 11 12 12 11 11 11 12 12 12 12 13 13 14 14 14 14 14 13 14 15 15 15 15 15 16 15 15 16 16 15 13 11 13 14 14 14 14 13 14 13 13 12 11 11 11 12
5 4 6 7 9 10 10 10 11 4 4 1 1 1 2 2 3 3 11 8 3 3 1 2 4 4 5 6 6 4 5 8 9 9 10 8 8 9 10 10 10 10 10 10 10 9 11 12 13 14 14 15 16 15 15 13 13 14 16 16 15 15 16 17 17 17 17 18 17 14 14 14 14 14 14 15 15 13 12 11 13 13 13 12 11 12
3 1 4 10 10 10 13 10 8 8 4 4 5 6 4 1 1 6 13 1 4 5 4 4 6 6 7 6 4 4 7 9 10 11 9 9 10 11 9 7 7 9 11 11 11 10 10 11 11 13 15 14 15 14 14 12 14 15 16 17 16 17 17 17 18 18 18 18 17 17 17 16 15 16 16 14 13 12 12 12 13 14 13 13 13 12
2 2 2 1 8 11 10 12 11 9 3 4 4 1 4 1 6 12 1 4 3 5 7 9 9 10 8 9 7 7 8 8 8 7 9 10 8 9 9 9 9 10 10 10 11 10 10 11 13 14 15 14 14 14 13 13 15 16 17 16 18 18 18 19 19 18 18 19 19 17 15 15 14 14 14 14 14 14 15 14 15 15 15 14 14 15
3 4 5 5 2 0 2 7 8 9 1 3 6 4 5 4 5 1 3 4 5 7 6 7 9 8 7 8 8 8 7 7 7 7 7 8 8 9 10 10 10 11 12 13 14 12 11 12 14 14 15 14 14 13 13 14 16 17 17 18 20 19 19 19 18 18 19 19 18 17 16 15 16 17 12 15 15 17 18 17 16 17 16 15 15 15
2 3 4 4 4 6 6 6 6 2 3 4 6 4 3 8 2 4 6 9 7 3 2 3 5 3 4 5 6 6 6 6 7 5 6 8 8 8 9 10 10 11 11 11 11 11 11 13 13 15 17 16 13 13 13 14 16 17 18 20 18 18 18 18 18 17 18 20 21 21 21 20 18 17 18 18 18 18 19 19 17 16 15 14 14 15
9 10 7 8 3 5 6 7 1 3 4 3 5 6 5 6 6 7 7 8 7 5 2 3 4 2 2 3 4 4 6 4 5 6 8 10 10 10 10 11 11 11 11 12 12 12 10 12 15 16 18 17 15 14 14 12 14 18 20 18 15 17 17 18 18 19 19 19 19 20 19 20 20 21 20 19 19 19 18 19 17 17 16 15 15 15
5 5 1 3 4 6 8 10 5 6 9 9 7 8 10 11 11 8 8 7 5 2 1 4 2 2 2 1 2 4 4 5 7 8 8 9 10 11 11 11 11 10 10 10 10 12 11 13 14 15 17 19 16 14 13 12 11 16 18 16 15 16 16 17 18 19 21 20 19 20 19 21 22 21 20 20 18 18 17 18 17 16 15 14 15 15
10 6 3 6 5 4 6 11 11 13 11 10 12 10 7 7 9 6 5 6 2 2 2 2 2 2 2 1 3 5 6 4 7 9 9 9 9 10 11 11 11 11 11 11 12 11 11 13 14 16 17 19 17 14 13 13 12 13 15 16 18 18 18 20 20 22 20 20 18 18 18 19 17 18 18 19 18 18 18 17 17 17 17 16 16 15
7 8 6 9 8 9 12 17 13 11 11 11 10 11 12 10 5 2 1 1 3 3 3 3 3 2 2 2 3 5 6 5 7 9 9 8 8 9 10 11 12 13 11 9 11 10 11 12 14 16 17 17 17 15 15 14 15 16 17 19 16 17 20 20 20 20 21 20 18 17 17 17 21 21 17 16 15 17 17 17 17 17 17 16 15 15
3 7 3 3 6 9 12 15 17 15 14 15 14 11 11 10 3 3 3 4 4 4 4 2 1 1 2 3 3 4 6 6 6 8 10 10 9 9 10 11 12 12 12 13 12 9 10 12 15 16 17 18 16 16 17 18 17 17 20 18 19 18 19 19 22 21 20 19 18 17 17 16 16 16 16 16 16 16 16 16 16 17 19 18 15 16
2 11 5 2 8 9 11 13 10 6 10 10 9 8 5 2 3 5 5 4 4 4 3 3 3 2 2 3 3 3 5 7 6 7 9 9 9 10 11 11 11 12 12 11 11 12 13 13 14 17 18 17 17 17 16 20 19 19 19 20 17 18 19 20 20 20 19 17 16 18 16 15 16 16 16 16 17 17 18 21 27 23 19 19 23 30
12 13 8 10 10 12 15 15 11 11 14 15 8 4 3 4 5 6 6 6 4 3 2 2 2 3 3 3 2 3 6 7 8 8 9 8 9 9 9 11 12 13 12 12 13 13 12 13 15 17 18 16 15 17 19 20 20 18 17 17 18 18 18 19 18 18 16 17 16 16 17 18 17 16 16 16 17 17 18 17 17 24 31 32 32 32
Wind_Direction
158 196 190 202 225 228 221 213 227 248 341 336 279 268 271 279 278 271 272 272 228 292 254 263 272 281 283 280 278 279 280 273 269 267 278 278 276 275 268 287 324 354 32 318 269 262 274 294 310 321 311 300 287 265 248 228 223 221 219 207 211 199 199 197 196 197 194 196 199 206 210 213 205 208 208 209 210 212 213 205 199 194 193 194 189 190
203 220 217 222 233 248 258 264 264 276 283 275 275 278 277 266 278 271 283 296 244 253 278 274 280 278 283 279 270 265 264 266 270 288 277 278 275 266 280 25 57 59 103 284 279 299 308 323 324 326 333 336 311 304 247 235 232 226 219 217 210 196 197 203 202 199 201 204 203 201 208 208 208 205 206 214 211 215 212 208 199 199 195 195 193 190
210 223 224 227 239 60 47 8 245 252 262 258 258 272 281 272 273 278 262 274 310 255 282 274 284 288 286 278 268 257 260 269 274 262 269 270 271 272 53 48 22 346 309 277 285 312 351 340 346 1 5 4 345 330 321 302 261 233 220 221 211 201 198 203 203 201 204 204 208 206 209 201 211 216 220 219 220 212 213 207 201 202 201 200 198 192
244 227 231 236 229 243 244 215 249 270 249 252 257 250 258 281 291 298 174 88 148 244 299 310 297 290 261 257 264 274 244 254 256 255 257 253 263 342 357 354 303 291 269 283 359 23 18 15 18 16 11 0 339 349 343 323 279 256 240 227 216 211 203 200 199 201 203 201 196 194 188 170 209 224 207 210 207 201 201 211 202 208 206 204 205 199
238 67 288 238 210 218 243 227 233 259 265 225 230 254 273 266 258 250 291 340 313 283 258 305 278 275 281 229 120 145 278 259 262 263 254 266 60 64 71 92 302 267 257 22 48 40 27 23 26 19 1 340 352 21 14 355 338 314 284 253 229 223 211 210 202 195 192 173 175 185 186 225 225 245 235 220 226 219 214 215 209 209 203 205 204 203
249 121 112 127 199 219 226 241 221 238 260 259 206 223 249 265 279 279 288 336 303 289 78 337 331 292 181 123 28 345 281 252 243 241 254 70 71 71 77 93 206 302 357 24 30 19 9 26 18 20 12 1 12 26 19 9 352 339 333 310 258 235 222 212 205 195 196 203 204 197 197 207 216 226 216 218 215 204 206 207 204 200 198 198 202 202
291 112 197 226 194 186 211 239 236 208 254 269 262 207 249 261 271 281 289 327 286 285 62 2 326 297 192 270 281 266 264 270 262 246 300 12 41 47 88 78 23 45 82 59 45 24 23 23 17 19 18 12 14 12 12 22 14 3 345 335 294 251 233 204 198 186 189 201 206 209 212 216 217 224 228 220 215 214 211 203 204 204 199 202 203 203
192 244 66 42 180 187 214 246 233 194 233 258 70 67 224 252 250 265 279 240 267 336 271 192 217 276 301 172 198 257 238 248 257 262 27 66 66 72 51 85 74 76 62 54 42 26 17 19 19 14 14 22 23 16 18 15 12 8 4 351 343 310 269 201 191 189 198 205 207 212 217 224 231 232 241 211 212 212 210 200 202 201 204 204 207 210
206 158 190 174 187 195 222 234 76 174 198 295 27 32 85 275 280 229 233 268 279 333 305 168 186 264 265 73 292 234 254 248 255 305 32 40 63 69 88 46 49 57 47 40 38 30 22 20 15 15 22 21 25 25 20 14 7 5 2 4 359 349 330 303 207 208 204 211 213 214 219 228 235 243 244 248 215 218 206 209 211 210 206 201 204 207
18 32 209 210 184 225 217 27 166 167 225 116 115 92 91 100 76 198 254 279 280 290 270 150 193 271 288 48 174 6 277 301 356 16 49 62 74 56 41 31 34 39 39 41 42 36 33 28 25 23 27 27 25 22 19 19 15 10 7 7 8 8 355 346 269 234 229 221 222 222 223 231 239 235 242 240 237 220 215 214 215 212 209 207 204 206
58 173 10 184 219 245 88 55 4 242 61 117 161 168 160 136 188 158 207 282 289 248 256 167 194 217 284 287 346 154 357 350 357 357 100 79 66 56 43 30 36 42 44 40 36 32 30 25 21 21 32 29 27 22 20 17 15 11 14 8 17 16 359 352 328 282 253 238 234 237 235 234 237 240 247 246 239 231 219 219 216 212 212 208 210 208
186 146 200 230 41 89 127 103 59 61 108 206 73 327 314 220 168 208 185 179 254 268 139 184 194 204 232 123 290 71 318 238 263 300 339 68 61 51 45 41 42 47 48 41 35 28 20 15 16 22 28 27 25 23 20 15 13 13 13 12 22 22 13 1 347 320 290 272 254 252 253 252 250 244 242 244 249 239 229 223 225 214 211 212 210 207
240 214 198 10 253 195 161 228 122 85 107 117 87 313 286 286 347 254 154 228 213 255 75 347 53 269 238 247 297 309 309 312 172 303 7 50 66 58 58 51 46 42 41 38 33 27 21 20 18 19 22 24 22 21 19 17 14 14 14 16 23 24 16 10 357 343 320 293 282 274 268 268 268 263 257 256 250 243 237 230 227 219 214 210 208 209
290 91 144 214 277 206 194 213 166 215 165 160 185 169 185 284 258 269 283 268 290 280 77 58 239 253 290 263 230 249 260 27 36 53 70 81 75 68 61 50 47 44 39 34 31 29 25 22 22 24 24 23 20 19 18 16 17 15 13 14 23 22 21 19 16 2 346 326 308 299 288 282 278 272 266 262 261 253 246 233 227 224 223 220 216 214
311 297 153 187 244 145 194 213 218 42 157 196 129 177 196 206 238 283 278 272 275 298 109 208 108 233 106 21 42 324 46 31 38 78 85 76 72 71 64 54 44 41 35 31 32 30 27 25 26 26 24 23 23 21 19 16 14 11 8 12 22 24 18 14 11 7 2 351 337 323 309 294 287 280 276 271 267 265 255 244 234 230 228 228 227 221
232 256 265 161 304 159 191 229 88 105 106 200 207 24 354 236 164 239 243 243 280 299 277 168 220 324 239 33 191 224 334 50 67 69 69 64 60 58 56 46 41 34 30 27 29 29 29 29 27 26 24 25 24 24 23 18 9 358 359 24 33 30 24 21 18 16 8 358 345 334 324 314 299 288 284 281 276 269 262 256 244 240 234 232 231 227
211 248 140 177 134 200 193 134 208 145 262 153 130 196 220 20 185 263 304 238 42 290 259 248 256 255 268 251 268 258 93 81 65 54 49 49 47 49 48 41 37 34 29 29 33 30 26 27 28 28 27 25 24 24 22 14 1 8 20 24 23 21 21 20 18 17 15 9 6 358 343 327 312 299 287 282 281 276 271 262 254 250 247 241 233 233
241 272 154 147 228 227 94 167 164 224 149 100 213 229 62 224 24 222 260 127 220 237 266 271 266 275 285 296 112 123 76 64 55 64 67 60 54 58 60 54 51 41 36 38 37 36 30 27 24 24 27 27 25 21 16 11 11 20 27 25 23 19 15 12 12 15 16 13 11 6 2 350 334 318 305 296 288 282 276 267 260 256 251 242 235 227
204 270 252 226 231 138 35 154 264 170 264 230 226 353 173 210 228 199 126 225 219 240 264 217 272 274 262 251 224 286 91 76 62 48 51 45 46 54 54 52 44 42 39 32 30 26 25 26 25 22 23 24 21 17 15 14 18 23 25 21 19 17 15 12 10 10 14 17 15 6 2 355 346 339 328 313 302 292 282 276 269 261 255 256 243 231
179 257 264 60 173 129 102 162 225 188 147 118 323 267 67 15 244 197 204 238 265 264 252 247 231 271 254 297 109 78 71 84 82 67 58 59 54 49 52 52 48 41 39 32 31 28 20 23 24 23 20 16 12 9 9 13 18 22 20 18 17 15 13 10 10 9 13 14 15 14 15 14 7 355 343 332 320 307 299 294 291 283 273 264 259 244
245 176 268 144 343 112 216 178 218 183 182 186 218 228 176 205 345 65 349 202 228 253 230 270 245 244 284 33 80 91 81 62 67 74 56 48 50 50 49 42 42 44 38 29 28 24 20 13 12 16 16 17 19 20 19 19 18 17 14 13 10 10 8 10 8 3 4 2 6 9 13 12 12 9 1 349 328 314 310 308 301 292 281 277 259 251
235 201 241 246 238 204 243 98 204 217 222 217 192 208 205 180 211 237 253 166 232 220 236 244 252 222 75 9 94 114 123 111 89 83 81 58 50 52 51 56 58 54 50 30 23 21 16 14 12 10 10 9 12 16 17 13 14 14 15 8 3 5 6 1 2 1 356 355 352 358 355 356 354 1 4 4 5 353 338 324 315 305 291 275 269 256
279 45 317 257 241 258 277 96 69 338 2 354 295 268 227 268 219 238 259 217 224 223 242 242 269 206 97 107 112 113 112 113 117 119 107 98 64 50 36 27 23 29 20 13 14 9 3 360 356 356 359 2 6 5 3 4 6 4 3 6 3 4 359 355 348 346 342 341 343 348 347 351 358 358 10 21 22 10 354 343 326 316 303 292 282 268
50 251 255 255 257 273 281 308 90 90 120 287 258 221 250 243 244 264 277 5 280 308 229 232 238 217 126 98 108 110 111 115 118 99 111 108 108 72 64 27 28 20 17 10 10 7 7 4 0 2 5 3 3 360 0 358 359 359 360 356 351 352 350 348 344 339 338 338 345 348 354 1 0 7 9 8 5 4 3 352 338 320 312 301 290 282
277 251 312 302 291 275 247 181 115 61 120 147 336 358 358 318 321 294 260 143 269 193 254 267 264 255 158 158 160 147 140 125 106 81 57 76 65 53 34 32 22 16 13 14 6 359 354 358 360 359 354 353 349 348 349 351 352 351 352 355 354 349 343 341 334 335 331 333 342 351 358 1 3 5 4 0 354 351 347 345 343 334 320 306 292 280
260 257 278 287 294 292 291 284 292 319 46 348 307 353 356 49 340 341 270 249 250 187 211 234 247 268 82 160 183 163 140 126 127 125 124 108 75 70 5 2 357 348 354 346 350 344 347 341 340 345 348 344 344 343 339 342 342 341 339 339 342 338 340 341 339 338 341 345 350 353 357 358 359 358 356 351 347 347 342 340 339 336 331 325 311 293
247 255 218 246 261 267 274 284 297 111 287 252 257 297 284 261 176 236 269 263 253 313 290 287 298 301 290 231 245 179 135 130 149 158 172 181 195 226 244 283 305 306 313 320 323 323 318 328 335 338 336 337 333 336 334 334 336 336 337 334 337 336 334 336 336 337 337 340 343 344 350 349 348 344 342 341 336 332 334 336 335 332 329 326 314 305
236 251 216 243 249 262 270 270 281 151 264 264 253 252 256 262 265 269 262 263 328 319 273 255 269 271 261 277 281 289 127 129 144 160 203 205 217 216 241 248 266 278 285 301 306 313 320 312 308 306 309 313 315 316 316 320 320 324 323 324 323 325 326 327 330 328 327 328 329 328 330 332 329 331 328 327 327 326 327 329 330 331 327 324 320 312
242 265 267 263 261 258 257 256 240 234 217 226 238 249 253 256 256 253 255 267 275 259 276 303 296 281 270 268 280 328 102 105 141 201 220 243 243 227 229 242 249 257 259 257 263 272 284 299 302 306 305 302 301 302 303 302 306 311 314 311 314 315 321 326 326 325 322 318 314 316 313 310 310 310 321 320 325 327 329 327 323 321 319 320 319 315
266 256 250 332 299 289 279 282 287 284 286 275 260 258 261 263 263 265 268 264 257 258 261 268 269 271 276 286 66 106 120 66 336 311 285 277 280 271 258 254 250 250 255 263 266 263 262 265 277 282 293 298 304 310 313 315 313 315 315 313 315 316 315 324 322 320 319 317 315 316 314 307 302 307 311 313 315 322 322 323 321 318 314 312 313 313
277 272 83 300 287 273 276 279 280 277 283 275 274 273 268 265 267 268 269 262 263 260 259 258 258 262 274 90 107 101 161 296 296 304 296 290 274 270 273 276 275 268 266 265 261 266 268 271 272 272 269 271 279 287 297 298 304 309 310 311 316 317 319 322 320 317 316 313 312 313 313 313 312 313 313 310 309 302 306 308 312 312 309 308 308 306
355 263 348 189 291 268 260 256 268 294 286 275 277 272 266 263 269 257 255 255 252 256 255 259 255 256 122 108 93 189 184 308 313 315 311 307 300 278 273 281 281 279 279 281 280 271 266 266 271 276 280 283 283 282 280 282 286 295 296 301 307 308 312 314 312 313 311 312 314 315 315 312 310 309 310 315 310 310 305 300 292 291 293 299 304 304
218 196 295 297 285 255 276 283 324 317 299 277 241 244 256 260 250 256 258 260 257 265 267 256 272 16 126 138 62 36 193 315 304 314 314 311 310 302 288 281 276 272 271 274 281 283 283 283 279 276 275 274 273 271 269 272 275 273 278 283 287 292 292 295 299 302 305 306 309 309 307 306 306 303 302 301 303 303 303 300 299 293 291 284 287 290
220 229 254 244 262 271 274 294 296 262 257 248 304 73 242 257 270 270 264 260 263 251 274 349 114 120 124 138 20 356 345 318 322 308 310 307 313 316 308 304 299 293 282 270 267 269 269 268 264 264 264 265 265 264 266 264 268 271 278 279 276 275 272 273 276 277 281 282 285 289 292 294 295 290 290 289 285 290 286 287 287 291 293 293 291 285
239 247 248 255 258 270 280 343 285 251 250 316 44 284 16 8 282 261 267 266 263 99 114 120 132 145 168 113 257 318 311 301 282 285 287 289 285 287 294 298 300 297 291 285 275 269 265 264 266 266 265 263 267 271 270 265 261 273 279 281 281 275 275 269 269 267 270 275 278 281 284 285 284 287 290 291 290 291 288 285 288 286 287 291 292 293
236 237 251 246 253 318 226 247 249 251 88 287 276 192 79 313 264 270 272 257 220 185 188 162 165 156 187 222 291 277 294 287 280 270 267 270 273 280 291 300 306 309 306 298 291 286 286 287 294 304 312 322 320 308 298 296 307 307 297 293 285 283 279 277 274 273 271 269 266 264 269 272 274 276 280 284 288 290 283 281 278 283 285 284 286 283
240 257 241 264 217 245 242 240 245 318 311 284 272 214 171 234 226 221 274 314 133 191 163 159 172 177 321 321 333 328 316 268 277 273 241 233 256 267 278 291 302 307 308 305 300 298 309 330 338 339 335 330 327 327 325 326 324 317 309 300 291 287 286 284 279 278 277 275 269 268 262 263 264 267 274 273 280 285 284 282 286 281 281 280 279 281
229 227 231 234 256 226 243 263 276 267 260 301 101 27 104 272 39 319 84 292 131 158 146 140 145 322 334 329 331 327 316 299 297 294 303 282 215 265 281 288 296 302 306 309 312 324 333 335 338 334 330 325 321 320 321 324 322 316 307 300 297 296 291 287 284 285 284 281 280 276 272 265 258 268 274 274 274 277 279 281 282 282 280 277 276 277
220 224 230 228 247 252 238 235 245 252 256 96 172 142 186 134 51 318 238 285 114 180 168 101 328 321 300 300 302 311 306 293 286 297 308 321 321 317 311 310 311 312 315 323 333 336 337 332 327 319 317 316 312 315 319 320 318 312 305 304 303 301 296 294 297 296 291 289 290 288 282 276 278 277 275 273 272 273 276 277 278 278 277 274 273 272
154 203 193 226 228 229 244 249 251 256 261 316 164 312 164 133 126 315 301 298 108 235 214 202 240 256 259 250 263 264 272 285 289 302 321 325 333 323 316 319 323 329 329 328 326 332 326 319 318 318 319 316 313 318 321 324 320 312 308 307 308 304 302 305 306 303 303 301 297 293 290 289 286 280 277 275 273 272 270 272 275 273 270 271 272 274
152 266 206 217 229 235 238 251 259 261 242 232 249 249 137 182 17 282 261 334 177 218 204 199 229 243 253 260 240 244 241 262 281 295 319 325 319 313 321 342 339 326 318 318 318 323 320 317 314 311 312 310 316 324 329 334 328 318 316 314 309 304 308 310 309 308 306 303 301 298 295 293 288 285 282 279 277 275 272 270 271 272 273 272 272 270
256 156 287 241 224 235 238 251 250 273 250 210 230 176 135 154 250 258 293 139 212 233 214 205 227 241 245 247 260 265 275 275 286 297 301 306 310 311 318 324 320 314 309 309 312 321 322 321 318 316 313 317 327 333 334 335 325 317 315 313 307 311 315 312 310 309 306 302 300 299 297 295 292 288 287 285 283 279 276 274 273 273 274 272 270 270
202 148 225 209 187 323 221 246 262 262 55 162 175 73 202 201 265 74 306 278 200 234 247 225 223 233 222 253 252 266 275 277 280 289 298 304 307 308 315 319 318 316 317 320 323 330 339 327 321 317 316 319 326 331 329 332 324 318 315 308 309 314 312 310 309 308 308 307 305 301 298 296 294 293 291 287 285 283 280 279 276 272 271 269 270 270
222 241 238 242 177 247 232 212 211 248 234 190 185 243 216 212 306 326 319 306 306 292 259 265 246 196 223 242 267 265 265 278 287 291 301 298 301 309 310 308 307 308 311 314 319 329 344 327 320 317 314 317 323 330 332 336 321 312 308 305 314 314 313 312 311 310 305 299 297 298 296 294 293 289 286 286 286 284 281 278 277 276 272 271 270 272
194 212 215 254 195 183 226 256 205 128 248 188 198 249 264 279 280 287 294 284 286 279 167 263 278 146 212 238 257 267 279 275 288 304 299 298 304 303 304 302 305 309 314 317 323 332 335 326 320 317 314 314 323 327 323 322 317 310 304 304 311 307 305 304 304 304 302 303 303 301 298 297 294 291 289 288 286 282 279 276 275 273 270 268 267 265
253 240 311 339 247 253 270 265 279 253 249 260 227 233 257 270 272 268 263 272 247 229 256 262 261 182 162 173 254 271 261 293 300 294 289 289 293 296 298 301 306 314 316 319 322 329 334 329 321 316 311 310 316 316 311 309 307 300 296 303 302 301 302 301 303 302 301 300 300 299 300 299 296 293 292 292 288 283 280 279 276 272 271 269 267 266
248 213 171 231 261 281 265 254 230 247 257 252 262 264 237 225 258 269 262 256 267 131 138 117 160 151 151 148 266 283 290 295 287 286 288 290 293 298 303 307 310 317 324 322 325 337 332 333 319 313 313 306 309 308 302 299 295 289 294 296 301 301 300 300 299 298 296 297 297 296 296 295 295 293 291 286 284 282 280 278 277 273 271 268 267 265
269 173 204 228 241 233 252 261 261 252 253 261 267 274 272 264 224 141 254 63 100 102 105 117 118 160 149 258 267 276 279 283 283 288 296 299 303 305 306 309 313 315 318 325 323 332 326 319 310 306 305 302 303 304 299 296 294 297 298 299 298 302 300 298 296 296 296 294 293 291 291 290 288 288 286 285 280 278 275 272 271 273 270 269 267 270
205 96 216 176 216 239 255 263 265 271 272 265 255 243 247 258 242 150 137 127 127 137 133 131 166 202 249 271 290 284 286 284 285 292 296 302 302 303 308 311 313 314 318 321 319 322 313 309 305 300 298 296 299 301 302 301 300 302 301 301 303 301 298 296 297 295 292 292 291 288 290 287 286 285 286 285 283 275 272 271 270 268 268 264 262 262
197 238 179 143 250 245 242 247 238 250 270 266 246 234 234 91 180 155 140 144 160 163 166 171 187 190 239 269 285 293 284 288 290 294 291 292 295 301 307 311 313 312 310 313 313 309 307 304 298 297 297 295 304 304 302 303 301 301 302 303 299 299 294 296 295 294 293 292 291 290 289 288 288 287 284 283 283 282 278 270 270 270 271 274 268 266
219 229 204 215 231 249 246 242 229 241 263 266 282 111 129 150 153 168 183 178 162 159 160 183 202 214 226 238 265 292 284 289 296 301 293 293 297 306 309 313 312 310 310 312 309 306 302 301 297 293 292 293 300 304 302 301 301 297 297 297 296 296 294 295 295 295 293 293 291 290 292 291 288 286 284 283 282 281 281 282 273 267 268 267 271 270